Flag for New Zealand Weather past 2 weeks in Auckland, New Zealand

Now
54 °F

Passing clouds.


Feels Like: 52 °F
Forecast: 55 / 60 °F
Wind: 7 mph from North

Location: Auckland Airport

Current Time: Jul 6, 2015 at 9:45:14 PM

Latest Report: Jul 6, 2015 at 9:00 PM


Visibility: N/A

Pressure: 29.77 "Hg

Humidity: 94%

Dew point: 52 °F

Location of AucklandLocation

Historic Weather in Auckland — Graph

°F

Auckland temperature yesterday

Maximum temperature yesterday: 57 °F (at 11:00 AM)
Minimum temperature yesterday: 54 °F (at 4:30 AM)
Average temperature yesterday: 55 °F

Past Weeks' High & Low Weather Summary

 TemperatureHumidityPressure
High61 °F (Jul 3, 12:00 PM)100% (Jun 25, 5:30 AM)30.39 "Hg (Jun 25, 5:30 AM)
Low37 °F (Jun 23, 6:30 AM)50% (Jun 23, 1:30 PM)29.62 "Hg (Jul 4, 5:00 PM)
Average53 °F83%30.04 "Hg
* Reported Jun 21 8:00 PM — Jul 6 8:30 PM, Auckland, Weather by CustomWeather, © 2015

Note: Actual official high and low records may vary slightly from our data, if they occured in-between our weather recording intervals... More about our weather records

Advertising

Auckland weather history for previous 24 hours

 ConditionsComfort  
Time TempWeatherWind HumidityBarometerVisibility
8:30 PM
Mon, Jul 6
54 °FPassing clouds.7 mph94%29.77 "HgN/A
8:00 PM54 °FPassing clouds.7 mph94%29.80 "HgN/A
7:30 PM54 °FPassing clouds.7 mph94%29.80 "HgN/A
7:00 PM55 °FPassing clouds.8 mph88%29.80 "HgN/A
6:30 PM55 °FPassing clouds.13 mph88%29.80 "HgN/A
6:00 PM57 °FCool.13 mph82%29.77 "HgN/A
5:30 PM57 °FPassing clouds.12 mph82%29.77 "HgN/A
5:00 PM57 °FPassing clouds.13 mph82%29.77 "HgN/A
4:30 PM59 °FPartly cloudy.12 mph77%29.77 "HgN/A
4:00 PM57 °FCool.13 mph77%29.80 "HgN/A
3:30 PM59 °FPassing clouds.14 mph77%29.80 "HgN/A
3:00 PM59 °FScattered clouds.12 mph77%29.80 "HgN/A
2:30 PM61 °FScattered clouds.14 mph72%29.80 "HgN/A
2:00 PM59 °FBroken clouds.15 mph77%29.80 "HgN/A
1:30 PM61 °FCool.15 mph72%29.80 "HgN/A
1:00 PM61 °FPassing clouds.17 mph72%29.80 "HgN/A
12:30 PM61 °FPassing clouds.17 mph77%29.83 "HgN/A
12:00 PM61 °FScattered clouds.14 mph77%29.83 "HgN/A
11:30 AM59 °FScattered clouds.13 mph82%29.83 "HgN/A
11:00 AM59 °FScattered clouds.13 mph88%29.83 "HgN/A
10:30 AM57 °FBroken clouds.7 mph88%29.83 "HgN/A
10:00 AM57 °FPassing clouds.13 mph94%29.83 "HgN/A
9:30 AM57 °FDrizzle. Broken clouds.15 mph88%29.83 "Hg6 mi
8:30 AM54 °FScattered clouds.7 mph94%29.83 "HgN/A
8:00 AM54 °FScattered clouds.6 mph88%29.83 "HgN/A
7:30 AM54 °FPassing clouds.6 mph88%29.83 "HgN/A
7:00 AM54 °FPassing clouds.12 mph88%29.83 "HgN/A
6:30 AM54 °FLight rain. Partly cloudy.17 mph94%29.80 "HgN/A
6:00 AM55 °FPassing clouds.12 mph82%29.80 "HgN/A
5:30 AM55 °FPassing clouds.13 mph82%29.80 "HgN/A
5:00 AM55 °FPartly cloudy.12 mph82%29.80 "HgN/A
4:30 AM55 °FScattered showers. Passing clouds.12 mph82%29.80 "HgN/A
4:00 AM55 °FPassing clouds.9 mph82%29.80 "HgN/A
3:30 AM54 °FPassing clouds.8 mph88%29.80 "HgN/A
3:00 AM54 °FScattered showers. Passing clouds.8 mph94%29.83 "HgN/A
2:30 AM55 °FSprinkles. Partly cloudy.14 mph88%29.83 "HgN/A
2:00 AM55 °FSprinkles. Partly cloudy.16 mph88%29.83 "HgN/A
1:30 AM55 °FPassing clouds.15 mph88%29.83 "HgN/A
1:00 AM55 °FScattered showers. Passing clouds.12 mph88%29.83 "HgN/A
12:30 AM55 °FPassing clouds.15 mph88%29.83 "HgN/A
12:00 AM55 °FPassing clouds.16 mph88%29.83 "HgN/A
11:30 PM
Sun, Jul 5
55 °FScattered showers. Passing clouds.14 mph88%29.83 "HgN/A
11:00 PM55 °FSprinkles. Passing clouds.20 mph88%29.83 "HgN/A
10:30 PM55 °FPassing clouds.16 mph88%29.83 "HgN/A
10:00 PM55 °FPassing clouds.12 mph88%29.83 "HgN/A
9:30 PM54 °FPassing clouds.14 mph88%29.83 "HgN/A
9:00 PM55 °FPartly cloudy.13 mph82%29.83 "HgN/A
Weather by CustomWeather, © 2015

See weather overviewHow to use our weather pages